Regional Weather Roundup
Issued by NWS

Home | Current Version | Previous Version | Text Only | Print | Product List | Glossary Off
Versions: 1 2 3 4 5 6 7 8 9 10 11 12 13 14 15 16 17 18 19 20 21 22 23 24 25 26 27 28 29 30 31 32 33 34 35 36 37 38 39 40 41 42 43 44 45 46 47 48 49 50

000
ASUS43 KTOP 262059
RWRKS

WEATHER ROUNDUP FOR KANSAS
NATIONAL WEATHER SERVICE GOODLAND KS
400 PM CDT MON SEP 26 2016

NOTE:  "FAIR" INDICATES FEW OR NO CLOUDS BELOW 12,000 FEET WITH NO
SIGNIFICANT WEATHER AND/OR OBSTRUCTIONS TO VISIBILITY.

KSZ001>006-013>018-027>032-041>047-262200-
NORTHWEST KANSAS

CITY           SKY/WX    TMP DP  RH WIND       PRES   REMARKS
GOODLAND       SUNNY     79  36  21 W10G21    30.24F
HAYS           SUNNY     79  34  19 SW7       30.21F
HILL CITY      SUNNY     78  39  24 VRB6      30.20F
RUSSELL        SUNNY     77  36  22 MISG      30.20F
$$

KSZ061>065-074>080-084>089-262200-
SOUTHWEST KANSAS

CITY           SKY/WX    TMP DP  RH WIND       PRES   REMARKS
DODGE CITY     SUNNY     77  30  17 CALM      30.25F
ELKHART          N/A     77  36  22 SW1         N/A
GARDEN CITY    SUNNY     78  32  18 SW8       30.24F
GREAT BEND     SUNNY     75  36  23 SW7       30.22F
LIBERAL        SUNNY     75  32  20 CALM      30.28F
$$

KSZ066>073-081>083-090>101-262200-
SOUTHEAST KANSAS

CITY           SKY/WX    TMP DP  RH WIND       PRES   REMARKS
CHANUTE        SUNNY     74  40  29 VRB6      30.20F
COFFEYVILLE    SUNNY     74  40  29 N13       30.20F
HUTCHINSON     SUNNY     75  36  24 VRB5      30.23F
MEDICINE LODGE   N/A     74  37  26 NE7       30.24F
NEWTON         SUNNY    N/A N/A N/A NW8       30.24F
PARSONS        SUNNY     75  42  30 N9        30.21F
WICHITA INTL   MOSUNNY   75  40  28 N9        30.23F
WICHITA JABRA  SUNNY     73  42  32 CALM      30.22F
WINFIELD       SUNNY     75  42  30 N10       30.23F
$$

KSZ007>012-019>026-033>040-048>060-102>105-262200-
NORTHEAST KANSAS

CITY           SKY/WX    TMP DP  RH WIND       PRES   REMARKS
CONCORDIA      SUNNY     75  39  27 W13G22    30.19F
EMPORIA          N/A     72  41  32 W6        30.21F
LAWRENCE       SUNNY     74  42  31 NW9       30.18F
MANHATTAN      SUNNY     75  41  29 W3        30.19F
OLATHE IND     SUNNY     72  40  31 MISG      30.20F
OLATHE EXE     SUNNY     70  39  32 NW12      30.19F
SALINA         SUNNY     77  39  25 NW7       30.21F
TOPEKA BILLARD SUNNY     75  42  30 NW9       30.19F
TOPEKA FORBES  SUNNY     75  41  29 VRB7      30.19F
$$




USA.gov is the U.S. government's official web portal to all federal, state and local government web resources and services.